[[{"header":{"parameterUnit":"m.s-1","parameterCategory":1,"la1":30.2992,"la2":30.254,"lo1":-89.0895,"lo2":-89.0443,"dy":0.0025,"dx":0.0025,"nx":19,"ny":19,"refTime":"2026-05-14T09:00:00:Z","depth":0,"parameterNumber":2,"parameterNumberName":"U-component_of_WINDS"},"data":[0,0,0,-0.8153,-0.8151,-0.8081,-0.8081,-0.7997,-0.7996,0,0,0,0,0,0,0,0,0,0,0,-0.8179,-0.8179,-0.8153,-0.8151,-0.8081,-0.8081,-0.7997,-0.7996,0,0,0,0,0,0,0,0,0,0,0,-0.8179,-0.8179,-0.8178,-0.8151,-0.8081,-0.808,-0.7997,-0.8048,0,0,0,0,0,0,0,0,0,0,-0.8115,-0.8145,-0.8179,-0.8178,-0.8151,-0.8081,-0.808,-0.805,-0.8044,-0.8032,0,-0.8024,0,-0.8009,-0.7991,-0.7991,0,0,0,-0.8147,-0.815,-0.8126,-0.8178,-0.815,-0.8081,-0.8111,-0.8047,-0.8041,-0.8025,-0.8022,-0.8019,-0.8007,-0.7991,-0.799,-0.7935,-0.7935,0,0,-0.8151,-0.8169,-0.813,-0.8122,-0.8135,-0.8114,-0.8109,-0.8043,-0.8041,-0.8022,-0.8017,-0.8006,-0.799,-0.799,-0.7935,-0.7935,0,0,0,-0.8165,-0.8172,-0.815,-0.8126,-0.8113,-0.8112,-0.8107,-0.8044,-0.8035,-0.8016,-0.8005,-0.799,-0.7989,-0.7935,-0.7935,-0.7951,0,0,0,-0.8167,-0.818,-0.8152,-0.8162,-0.8114,-0.8078,-0.8109,-0.804,-0.8032,-0.8005,-0.799,-0.7988,-0.7936,-0.7935,-0.7951,-0.7955,0,0,0,-0.8182,-0.8182,-0.8174,-0.8163,-0.8134,-0.8078,-0.8066,-0.8038,-0.8025,-0.7991,-0.7988,-0.7936,-0.7935,-0.795,-0.7954,-0.7945,0,0,0,-0.8203,-0.8189,-0.8174,-0.8154,-0.8135,-0.8089,-0.8066,-0.8031,-0.8003,-0.7989,-0.7936,-0.7935,-0.795,-0.7954,-0.7945,-0.794,-0.794,0,0,-0.8195,-0.8189,-0.8175,-0.816,-0.8122,-0.8098,-0.8062,-0.8019,-0.7998,-0.7957,-0.7955,-0.7951,-0.7954,-0.7945,-0.7936,-0.7936,0,0,0,-0.8179,-0.8169,-0.8155,-0.813,-0.8097,-0.8069,-0.803,-0.8013,-0.7978,-0.7981,-0.7945,-0.7946,-0.794,-0.7937,-0.7937,-0.793,-0.7935,-0.7935,-0.7935,-0.8195,-0.8169,-0.8145,-0.8111,-0.8087,-0.8046,-0.8023,-0.7994,-0.7975,-0.7967,-0.7954,-0.7952,-0.7949,-0.7949,-0.7942,-0.7951,-0.7951,-0.7951,-0.7951,-0.8181,-0.8163,-0.8138,-0.8106,-0.8078,-0.805,-0.8009,-0.7997,-0.7965,-0.796,-0.7953,-0.7948,-0.795,-0.7942,-0.7952,-0.7951,-0.7951,-0.7951,-0.7951,-0.8188,-0.8175,-0.8156,-0.8116,-0.8087,-0.8053,-0.8024,-0.8,-0.7977,-0.797,-0.7953,-0.7953,-0.7949,-0.7964,-0.7964,-0.7964,-0.7964,-0.7964,-0.7964,-0.8203,-0.818,-0.816,-0.8123,-0.8103,-0.8073,-0.8031,-0.801,-0.798,-0.7965,-0.7964,-0.7946,-0.7956,-0.7958,-0.7964,-0.7964,-0.7964,-0.7964,-0.7964,-0.8197,-0.8194,-0.8162,-0.8142,-0.8096,-0.8068,-0.8038,-0.7997,-0.7976,-0.7962,-0.7944,-0.7956,-0.7947,-0.7947,-0.7949,-0.7951,-0.7951,-0.7951,-0.7951,-0.8203,-0.8196,-0.8157,-0.8126,-0.8093,-0.8062,-0.8024,-0.799,-0.7955,-0.7939,-0.7936,-0.7936,-0.7937,-0.7927,-0.7927,-0.7929,-0.7926,-0.7926,-0.7926,-0.8197,-0.8186,-0.816,-0.8126,-0.8087,-0.8054,-0.8017,-0.7981,-0.794,-0.7924,-0.7927,-0.7928,-0.7928,-0.793,-0.7915,-0.7915,-0.7917,0,0]},{"header":{"parameterUnit":"m.s-1","parameterCategory":1,"la1":30.2992,"la2":30.254,"lo1":-89.0895,"lo2":-89.0443,"dy":0.0025,"dx":0.0025,"nx":19,"ny":19,"refTime":"2026-05-14T09:00:00:Z","depth":0,"parameterNumber":3,"parameterNumberName":"V-component_of_WINDS"},"data":[0,0,0,-1.6135,-1.6135,-1.6173,-1.6173,-1.6206,-1.6206,0,0,0,0,0,0,0,0,0,0,0,-1.6116,-1.6116,-1.6135,-1.6135,-1.6173,-1.6173,-1.6206,-1.6206,0,0,0,0,0,0,0,0,0,0,0,-1.6116,-1.6116,-1.6116,-1.6135,-1.6173,-1.6173,-1.6206,-1.6182,0,0,0,0,0,0,0,0,0,0,-1.6148,-1.6124,-1.6116,-1.6116,-1.6136,-1.6173,-1.6173,-1.6182,-1.6184,-1.6183,0,-1.6181,0,-1.6194,-1.6207,-1.6207,0,0,0,-1.6141,-1.6122,-1.6139,-1.6116,-1.6136,-1.6173,-1.6157,-1.6183,-1.6186,-1.6186,-1.6182,-1.6183,-1.6195,-1.6208,-1.6208,-1.6186,-1.6186,0,0,-1.6138,-1.6118,-1.6137,-1.614,-1.6136,-1.6156,-1.6158,-1.6185,-1.6178,-1.6182,-1.6184,-1.6195,-1.6208,-1.6208,-1.6187,-1.6186,0,0,0,-1.6129,-1.6116,-1.6133,-1.6139,-1.6147,-1.6157,-1.616,-1.6177,-1.6185,-1.6185,-1.6196,-1.6208,-1.6208,-1.6187,-1.6186,-1.6148,0,0,0,-1.6128,-1.6111,-1.6132,-1.612,-1.6146,-1.6163,-1.6151,-1.6183,-1.6186,-1.6195,-1.6208,-1.6208,-1.6187,-1.6187,-1.615,-1.6132,0,0,0,-1.6116,-1.6109,-1.6112,-1.6118,-1.6134,-1.6163,-1.6172,-1.6184,-1.6193,-1.6208,-1.6208,-1.6188,-1.6187,-1.6151,-1.6135,-1.6118,0,0,0,-1.6096,-1.6077,-1.6111,-1.6094,-1.6134,-1.614,-1.6172,-1.6178,-1.6186,-1.6208,-1.6187,-1.6186,-1.6152,-1.6137,-1.612,-1.6099,-1.6089,0,0,-1.606,-1.6072,-1.6064,-1.6096,-1.609,-1.6136,-1.6125,-1.6151,-1.6171,-1.618,-1.618,-1.6149,-1.6135,-1.6119,-1.6046,-1.6037,0,0,0,-1.6045,-1.6039,-1.6042,-1.605,-1.6071,-1.6087,-1.6118,-1.6128,-1.6136,-1.6172,-1.6141,-1.6133,-1.6124,-1.6115,-1.6108,-1.6101,-1.6182,-1.6182,-1.6182,-1.5962,-1.5991,-1.5978,-1.601,-1.6017,-1.605,-1.6058,-1.6077,-1.6102,-1.6094,-1.6096,-1.6048,-1.6037,-1.6032,-1.6024,-1.609,-1.609,-1.6089,-1.6089,-1.591,-1.5904,-1.594,-1.5941,-1.597,-1.597,-1.6001,-1.602,-1.6023,-1.605,-1.6043,-1.6067,-1.6022,-1.6016,-1.6087,-1.6087,-1.6087,-1.6088,-1.6088,-1.5856,-1.5857,-1.5872,-1.5886,-1.5893,-1.5927,-1.5929,-1.5956,-1.5982,-1.5976,-1.5979,-1.5979,-1.5981,-1.5976,-1.5976,-1.5976,-1.5976,-1.5976,-1.5975,-1.5792,-1.581,-1.5809,-1.583,-1.5839,-1.5853,-1.5887,-1.5896,-1.5912,-1.5931,-1.5931,-1.5955,-1.6014,-1.6026,-1.5973,-1.5973,-1.5974,-1.5974,-1.5974,-1.5723,-1.5743,-1.5741,-1.575,-1.5777,-1.5782,-1.5818,-1.5833,-1.5844,-1.5844,-1.5871,-1.5911,-1.5924,-1.593,-1.594,-1.5867,-1.5867,-1.5867,-1.5867,-1.5674,-1.5685,-1.5689,-1.57,-1.5715,-1.5748,-1.5742,-1.5769,-1.5799,-1.5807,-1.5823,-1.584,-1.5844,-1.5855,-1.5862,-1.5871,-1.5783,-1.5783,-1.5783,-1.5631,-1.5645,-1.5635,-1.5667,-1.5691,-1.571,-1.5706,-1.5716,-1.5755,-1.578,-1.5814,-1.5817,-1.5845,-1.5853,-1.5874,-1.5885,-1.5903,0,0]}]]